Location: Blangy
(50.3000°N, 2.8000°E)
Time: 15:48:19
(UTC+00:00)

Daily predictions for brighter satellites

Satellite Brightness Start Highest point End
(mag) Time Altitude Azimuth Time Altitude Azimuth Time Altitude Azimuth
Cosmos 1814 Rocket 4.1 18:23:20 10° NNW 18:28:44 86° ENE 18:34:05 10° SSE
DMSP B5D2-2 4.5 18:23:54 10° NNE 18:28:57 43° E 18:33:57 10° S
COSMOS 2455 3.9 18:25:06 10° NNW 18:30:29 32° NE 18:35:51 10° E
SKYMED 2 4.3 18:27:14 10° N 18:31:32 60° WNW 18:35:49 10° SSW
IRS-1C Rocket 4.1 18:26:19 10° SSE 18:31:33 74° ENE 18:36:49 10° NNW
Cosmos 1745 Rocket 4.3 18:27:02 10° SSW 18:33:24 79° W 18:39:44 10° N
SeaSat 1 2.5 18:28:34 10° SE 18:33:28 68° NE 18:38:23 10° NNW
Cosmos 2344 3.9 18:27:03 10° SW 18:34:26 71° NW 18:42:38 10° NE
Landsat 5 4.5 18:31:03 10° N 18:34:46 48° WNW 18:38:30 10° SW
Okean O Rocket 3.5 18:31:17 10° SSW 18:35:20 36° W 18:39:24 10° NNW
ARGOS 3.7 18:30:13 10° S 18:35:31 65° WSW 18:40:52 10° NNW
Cosmos 1707 3.9 18:36:49 10° NNE 18:40:06 25° ENE 18:43:23 10° SE
ERBS 3.7 18:38:20 10° S 18:40:50 20° SE 18:43:19 10° E
Cosmos 1743 2.8 18:38:23 10° S 18:42:14 87° W 18:46:08 10° N
Cosmos 1975 3.6 18:40:20 10° SSE 18:43:48 29° E 18:47:17 10° NNE
CSL-04 Debris 4.2 18:38:57 10° SSE 18:44:19 67° ENE 18:49:42 10° N
OBJECT-B 1.6 18:42:36 10° SE 18:45:29 31° ENE 18:48:22 10° N
Cosmos 1943 Rocket 3.7 18:43:01 10° SE 18:45:41 14° E 18:48:22 10° ENE
Cosmos 968 Rocket 4.0 18:41:09 10° SSE 18:45:53 36° ESE 18:50:40 10° NE
USA 215 4.1 18:40:23 10° SSE 18:46:42 49° SW 18:53:02 10° WNW
Cosmos 1536 3.9 18:43:39 10° SSW 18:47:35 50° WNW 18:51:31 10° N
USA 305 2.9 18:43:42 10° SW 18:47:52 65° SSE 18:52:05 10° ENE
Lacrosse 5 rocket 2.7 18:43:45 10° WNW 18:48:00 36° N 18:52:10 10° ENE
Geosat 4.2 18:44:15 10° NNE 18:49:18 80° WNW 18:54:19 10° SW
CZ-2C R/B 3.2 18:46:26 10° N 18:51:49 67° WNW 18:57:18 10° SSW
ISS -1.6 18:51:14 10° SSE 18:52:06 11° SE 18:52:24 11° SE
Cosmos 921 Rocket 3.0 18:47:59 10° NNW 18:52:23 77° ENE 18:56:40 10° SSE
Cosmos 1461 4.1 18:51:26 10° NNW 18:54:59 28° NE 18:57:53 13° E
SL-4 R/B 3.3 18:53:48 10° W 18:56:44 27° SW 18:59:46 10° SSE
USA 307 2.9 18:54:22 10° SW 18:58:33 69° SSE 19:02:47 10° ENE
Cosmos 1842 3.3 18:59:24 10° N 19:03:23 89° W 19:07:20 10° S
Meteor 2-9 Rocket 4.3 18:58:06 10° S 19:03:50 65° E 19:09:40 10° NNE
USA 281 4.2 18:59:20 10° NE 19:04:23 23° E 19:09:24 10° SSE
Cosmos 1689 Rocket 4.0 19:05:54 10° NE 19:06:35 13° ENE 19:06:35 13° ENE
SJ-6B 3.1 19:04:48 10° SSE 19:08:49 53° ENE 19:12:51 10° N
Cosmos 1400 Rocket 4.0 19:07:16 11° SE 19:10:23 24° E 19:13:43 10° NE
Cosmos 2221 Rocket 3.8 19:06:23 10° NNW 19:10:50 75° W 19:15:14 10° S
Cosmos 1378 Rocket 3.6 19:07:41 10° N 19:12:02 62° ENE 19:16:24 10° SSE
ATLAS CENTAUR R/B 2.7 19:10:11 10° NNW 19:14:15 31° NE 19:17:09 17° E
USA 306 2.8 19:11:03 10° WSW 19:15:17 87° SSE 19:19:12 12° ENE
YAOGAN 1 4.4 19:12:28 10° SSW 19:16:23 33° W 19:20:21 10° NNW
Cosmos 1674 3.7 19:13:29 10° N 19:16:43 27° ENE 19:18:00 22° ESE
USA 308 2.8 19:13:15 10° WSW 19:17:29 85° SSE 19:21:18 13° ENE
COSMOS 2406 4.3 19:16:32 10° NW 19:22:02 46° WSW 19:27:28 10° S
Inspiration4 3.6 19:20:25 10° SSW 19:24:05 28° SE 19:25:23 24° ESE
Okean-O 3.8 19:21:07 10° S 19:25:22 44° W 19:29:38 10° NNW
Cosmos 1833 Rocket 4.1 19:20:29 10° NW 19:25:35 37° WSW 19:30:40 10° S
Cosmos 1674 Rocket 3.5 19:21:52 10° N 19:26:17 86° W 19:30:37 10° S
Meteor 1-21 4.3 19:22:59 10° NNW 19:28:44 81° W 19:34:22 10° S
CZ-4B R/B 2.0 19:25:47 10° N 19:28:44 51° WNW 19:31:41 10° SSW
Meteor 2-12 Rocket 4.4 19:22:54 10° S 19:29:01 75° E 19:35:08 10° NNE
In-Cosmos 22 4.0 19:23:55 10° N 19:29:16 74° ENE 19:34:24 11° SSE
USA 186 2.0 19:30:09 14° S 19:32:20 57° W 19:35:10 10° NNW
Cosmos 2074 Rocket 3.9 19:26:25 10° S 19:32:36 72° E 19:38:52 10° NNE
Lacrosse 4 Rocket 1.7 19:31:17 10° SW 19:35:18 64° NW 19:39:21 10° NNE
Cosmos 2082 Rocket 2.7 19:31:13 10° NW 19:36:52 59° WSW 19:42:26 10° S
Cosmos 1932 4.4 19:31:24 10° SSW 19:37:37 67° SE 19:43:48 10° NE
SPOT 3 Rocket 4.3 19:36:01 25° ESE 19:38:07 34° ENE 19:42:45 10° N
Resurs 01 Rocket 2.1 19:40:21 30° ESE 19:41:57 42° ENE 19:46:07 10° N
Okean 2 3.8 19:37:54 10° NNW 19:41:58 63° W 19:45:59 10° S
Cosmos 1340 3.5 19:45:00 10° NNW 19:48:40 50° W 19:52:07 11° S
CSL-04 DEB 4.2 19:46:33 10° NNE 19:50:35 72° ESE 19:54:30 10° S
CZ-4 R/B 4.4 19:49:16 10° WSW 19:51:08 13° W 19:53:01 10° WNW
Helios 1A Rocket 2.9 19:49:40 23° SSE 19:52:14 83° WSW 19:56:22 10° NNW
Cosmos 1782 Rocket 3.9 19:52:42 37° SE 19:53:46 44° E 19:58:01 10° NNE
Cosmos 1733 Rocket 4.3 19:49:41 10° SW 19:53:47 42° WNW 19:57:56 10° N
ARIANE 5 R/B 4.3 19:54:54 18° ENE 19:54:54 18° ENE 19:57:52 10° NNE
Ariane Rocket 2.9 19:53:09 26° SSE 19:56:05 78° ENE 20:01:12 10° NNW
Terra 3.7 19:56:16 15° ENE 19:56:33 15° NE 19:59:15 10° NNE
Cosmos 1805 4.4 19:59:08 28° ENE 19:59:08 28° ENE 20:01:33 10° NNE
ERS-1 Rocket 4.3 19:59:20 22° ENE 19:59:54 22° ENE 20:03:43 10° N
Cosmos 2278 Rocket 3.3 19:55:20 10° SW 20:00:48 47° NW 20:06:19 10° NNE
IRS-1A Rocket 4.3 19:57:02 20° SSE 20:01:14 89° WSW 20:07:09 10° NNW
Cosmos 2297 3.7 19:58:03 10° S 20:03:36 58° ESE 20:09:13 10° NE
Cosmos 1626 2.1 20:03:44 10° N 20:07:24 63° ENE 20:07:24 63° ENE
Cosmos 1346 Rocket 2.7 20:04:01 10° N 20:08:01 68° ENE 20:08:28 62° ESE
Resurs 1-3 3.9 20:06:22 25° S 20:08:52 66° WSW 20:13:15 10° NNW
Cosmos 2369 Rocket 3.5 20:12:19 23° ENE 20:12:19 23° ENE 20:14:54 10° NE
Cosmos 2184 Rocket 4.4 20:04:20 10° SSW 20:10:41 67° WNW 20:17:00 10° N
MOS 1 4.5 20:08:02 20° S 20:12:06 72° WSW 20:17:49 10° NNW
Cosmos 1503 Rocket 3.8 20:08:50 10° SSW 20:14:02 75° ESE 20:19:15 10° NNE
Cosmos 1707 4.5 20:12:30 10° NNW 20:15:59 31° W 20:19:15 11° SSW
ERBS 2.5 20:13:17 10° WSW 20:16:21 64° WNW 20:16:21 64° WNW
SPOT 1/Viking Rocket 3.6 20:15:41 47° ESE 20:16:52 60° ENE 20:21:58 10° N
COSMOS 2455 2.9 20:10:56 10° NW 20:16:59 75° WSW 20:19:34 36° SSE
Landsat 7 3.7 20:16:05 45° SSE 20:17:34 87° ENE 20:22:22 10° NNW
OBJECT-B 3.5 20:15:22 10° SW 20:17:39 18° W 20:19:57 10° NW
Cosmos 962 Rocket 4.4 20:16:03 28° SSE 20:19:25 65° E 20:25:32 10° NNE
IGS 5A 3.5 20:19:05 49° S 20:20:05 74° WSW 20:24:15 10° NNW
Cosmos 1975 Rocket 2.9 20:16:53 10° N 20:21:18 89° E 20:22:05 60° S
Cosmos 1238 Rocket 4.3 20:16:39 10° SSW 20:23:11 67° WNW 20:29:16 10° N
Cosmos 1354 Rocket 3.8 20:20:24 10° SSW 20:25:39 80° ESE 20:30:56 10° NNE
Lacrosse 5 rocket 1.5 20:23:13 10° NW 20:27:46 67° NNE 20:28:07 64° ENE
USA 305 3.4 20:23:44 10° W 20:27:54 55° N 20:28:50 44° NE
ISS -1.1 20:25:03 10° SW 20:25:27 13° SW 20:25:27 13° SW
Cosmos 2154 Rocket 4.3 20:22:04 10° SSW 20:28:23 70° WNW 20:34:46 10° N
Cosmos 1943 Rocket 2.0 20:22:55 10° SSW 20:28:28 78° ESE 20:34:06 10° NNE
Cosmos 1315 Rocket 4.4 20:31:49 25° NNE 20:31:49 25° NNE 20:33:40 10° NNE
Cosmos 1461 3.3 20:30:20 10° NW 20:34:13 51° WSW 20:34:13 51° WSW
Cosmos 1689 Rocket 4.3 20:35:59 10° N 20:37:57 24° NW 20:37:57 24° NW
USA 307 3.4 20:34:29 10° W 20:38:39 54° N 20:39:08 51° NNE
EO 1 Delta rocket 4.5 20:36:55 31° SSW 20:38:50 52° W 20:43:44 10° NNW
USA 245 4.4 20:41:57 34° N 20:41:57 34° N 20:44:22 10° N
Cosmos 1025 Rocket 3.0 20:36:15 10° N 20:40:23 78° N 20:40:23 78° N
Cosmos 1300 Rocket 4.4 20:43:36 40° NNE 20:43:36 40° NNE 20:46:34 10° NNE
SPOT 5 3.5 20:43:03 48° ENE 20:43:03 48° ENE 20:48:10 10° N
Meteor 1-12 Rocket 4.4 20:40:16 19° SSW 20:44:43 79° WNW 20:50:46 10° N
Cosmos 1400 Rocket 4.4 20:42:52 10° SW 20:46:41 36° WNW 20:50:29 10° N
Sich 1 Rocket 4.2 20:49:42 47° NNE 20:49:42 47° NNE 20:53:03 10° NNE
USA 281 3.2 20:42:59 10° NNE 20:49:36 84° WNW 20:56:10 10° SSW
APEX 4.4 20:44:34 10° NNW 20:49:48 47° NE 20:49:48 47° NE
CARTOSAT-1 4.0 20:51:06 54° NNE 20:51:06 54° NNE 20:54:35 10° N
Spot 2 Rocket 3.4 20:51:41 70° ENE 20:51:41 70° ENE 20:56:34 10° N
Meteor 1-24 Rocket 3.5 20:47:41 10° N 20:52:51 68° ENE 20:52:51 68° ENE
ATLAS CENTAUR R/B 2.0 20:48:52 10° NW 20:53:17 60° WSW 20:53:17 60° WSW
SL-8 Rocket 3.9 20:52:19 56° S 20:53:44 80° E 21:00:04 10° NNE
USA 306 3.6 20:51:19 10° W 20:55:14 50° NNW 20:55:14 50° NNW
Cosmos 1727 Rocket 4.0 20:50:27 10° N 20:56:46 61° ENE 20:57:07 60° E
Meteor 1-15 Rocket 4.1 20:56:18 69° S 20:57:01 90° ESE 21:02:38 10° NNE
USA 308 3.6 20:53:31 10° W 20:57:22 50° NNW 20:57:22 50° NNW
Inspiration4 4.4 20:59:42 10° WSW 21:01:36 26° WSW 21:01:36 26° WSW
ERS-2 4.4 21:01:26 10° NNE 21:02:38 20° N 21:02:38 20° N
SL-14 R/B 4.4 21:01:35 10° NNW 21:04:42 42° WNW 21:04:42 42° WNW
Cosmos 2341 Rocket 4.2 21:03:33 34° SSW 21:06:25 71° WNW 21:12:48 10° N
Cosmos 158 Rocket 4.0 21:05:34 10° NNW 21:10:10 71° NW 21:10:10 71° NW
Iridium 4 Rocket 4.3 21:07:29 10° N 21:10:26 36° NNE 21:10:26 36° NNE
Meteor 2-5 Rocket 3.7 21:07:33 10° NNW 21:13:05 71° W 21:13:17 70° WSW
Lacrosse 4 Rocket 4.4 21:12:30 10° WNW 21:14:47 14° NNW 21:17:03 10° N
SPOT 3 Rocket 4.5 21:16:41 38° WSW 21:17:27 40° W 21:22:19 10° NNW
Resurs 01 Rocket 3.4 21:17:56 24° WSW 21:18:36 25° W 21:22:17 10° NW
SJ 16-02 3.3 21:27:03 22° NNE 21:27:03 22° NNE 21:28:43 10° NNE
Cosmos 1833 4.3 21:21:03 10° NNW 21:26:13 70° WNW 21:26:13 70° WNW
Cosmos 2297 Rocket 3.8 21:23:31 10° NNW 21:28:04 24° NE 21:28:14 24° NE
Cosmos 2218 Rocket 4.1 21:29:22 63° WSW 21:30:06 70° WNW 21:36:17 10° N
ARIANE 5 R/B 3.9 21:32:28 38° NNW 21:32:28 38° NNW 21:35:16 10° NNW
Cosmos 2366 rocket 4.1 21:31:14 64° WSW 21:31:53 69° WNW 21:38:03 10° N
Meteor 1-22 Rocket 4.4 21:33:34 65° NNW 21:33:34 65° NNW 21:38:30 10° N
Terra 2.8 21:35:10 44° NNW 21:35:10 44° NNW 21:38:25 10° NNW
ERS-1 Rocket 3.7 21:39:20 51° NW 21:39:20 51° NW 21:43:18 10° NNW
Cosmos 2227 Rocket 3.8 21:44:19 10° NNW 21:48:50 25° NE 21:48:50 25° NE
Cosmos 2369 Rocket 2.8 21:54:02 54° NW 21:54:02 54° NW 21:59:21 10° NNE
Lacrosse 5 rocket 4.1 22:02:44 10° WNW 22:03:42 15° WNW 22:03:42 15° WNW
Cosmos 1943 Rocket 4.2 22:08:15 10° W 22:12:51 26° NW 22:17:31 10° NNE
CENTAUR R/B 3.8 22:53:55 34° NE 22:53:55 34° NE 22:57:55 10° NE
SJ 16-02 4.2 23:03:59 13° NW 23:03:59 13° NW 23:05:53 10° NNW
Cosmos 2297 Rocket 3.7 23:07:10 10° NNW 23:10:02 31° NNW 23:10:02 31° NNW
Cosmos 2227 Rocket 3.9 23:28:00 10° NNW 23:30:37 28° NNW 23:30:37 28° NNW
ATLAS 3B R/B 4.4 23:50:47 20° ENE 23:50:47 20° ENE 23:53:17 10° NE
